Flag for Russia Weather past 2 weeks in Yakutsk, Russia

Now
54 °F

Clear.


Feels Like: 53 °F
Forecast: 47 / 76 °F
Wind: 3 mph from North

Location: Jakutsk

Current Time: Jul 6, 2015 at 1:05:12 AM

Latest Report: Jul 6, 2015 at 12:30 AM


Visibility: 10 mi

Pressure: 29.74 "Hg

Humidity: 72%

Dew point: 45 °F

Location of YakutskLocation

Historic Weather in Yakutsk — Graph

°F

Yakutsk temperature yesterday

Maximum temperature yesterday: 73 °F (at 3:00 PM)
Minimum temperature yesterday: 43 °F (at 3:00 AM)
Average temperature yesterday: 61 °F

Past Weeks' High & Low Weather Summary

 TemperatureHumidityPressure
High77 °F (Jul 1, 3:00 PM)100% (Jun 22, 9:30 PM)29.77 "Hg (Jun 22, 9:30 PM)
Low43 °F (Jul 5, 3:00 AM)23% (Jul 5, 3:00 PM)29.30 "Hg (Jun 25, 5:30 AM)
Average60 °F67%29.62 "Hg
* Reported Midnight between Jun 20 and Jun 21 — Midnight between Jul 5 and Jul 6, Yakutsk, Weather by CustomWeather, © 2015

Note: Actual official high and low records may vary slightly from our data, if they occured in-between our weather recording intervals... More about our weather records

Advertising

Yakutsk weather history for previous 24 hours

 ConditionsComfort  
Time TempWeatherWind HumidityBarometerVisibility
12:00 AM
Mon, Jul 6
55 °FClear.3 mph72%29.74 "Hg10 mi
11:30 PM
Sun, Jul 5
57 °FClear.3 mph72%29.74 "Hg10 mi
11:00 PM55 °FClear.3 mph77%29.74 "Hg10 mi
10:30 PM59 °FClear.1 mph68%29.74 "Hg10 mi
10:00 PM61 °FSunny.1 mph63%29.74 "Hg10 mi
9:30 PM63 °FSunny.3 mph56%29.74 "Hg10 mi
9:00 PM64 °FSunny.3 mph56%29.74 "Hg10 mi
8:30 PM68 °FSunny.3 mph46%29.74 "Hg10 mi
8:00 PM70 °FSunny.1 mph43%29.74 "Hg10 mi
7:30 PM72 °FSunny.3 mph33%29.74 "Hg10 mi
7:00 PM72 °FSunny.3 mph33%29.74 "Hg10 mi
6:30 PM73 °FSunny.3 mph29%29.74 "Hg10 mi
6:00 PM72 °FSunny.3 mph33%29.74 "Hg10 mi
5:30 PM73 °FSunny.3 mph25%29.74 "Hg10 mi
5:00 PM73 °FSunny.1 mph25%29.74 "Hg10 mi
4:30 PM73 °FSunny.1 mph25%29.74 "Hg10 mi
4:00 PM73 °FPassing clouds.3 mph25%29.74 "HgN/A
3:30 PM73 °FSunny.1 mph25%29.74 "Hg10 mi
3:00 PM73 °FSunny.1 mph23%29.74 "Hg10 mi
2:30 PM72 °FSunny.1 mph27%29.74 "Hg10 mi
2:00 PM72 °FSunny.1 mph29%29.74 "Hg10 mi
1:30 PM72 °FSunny.1 mph29%29.74 "Hg10 mi
1:00 PM70 °FSunny.1 mph31%29.77 "Hg10 mi
12:30 PM70 °FSunny.3 mph25%29.77 "Hg10 mi
12:00 PM68 °FSunny.3 mph35%29.77 "Hg10 mi
11:30 AM68 °FSunny.3 mph38%29.74 "Hg10 mi
11:00 AM66 °FSunny.3 mph43%29.74 "Hg10 mi
10:30 AM64 °FPassing clouds.3 mph46%29.74 "HgN/A
10:00 AM64 °FSunny.3 mph49%29.77 "Hg10 mi
9:30 AM64 °FSunny.3 mph52%29.77 "Hg10 mi
9:00 AM66 °FSunny.1 mph43%29.77 "Hg10 mi
8:30 AM63 °FSunny.1 mph49%29.74 "Hg10 mi
8:00 AM63 °FSunny.1 mph45%29.77 "Hg10 mi
7:30 AM61 °FSunny.1 mph45%29.77 "Hg10 mi
7:00 AM57 °FSunny.1 mph51%29.77 "Hg10 mi
6:30 AM55 °FSunny.3 mph55%29.74 "Hg10 mi
6:00 AM52 °FSunny.6 mph58%29.74 "Hg10 mi
5:30 AM50 °FSunny.3 mph62%29.74 "Hg10 mi
5:00 AM46 °FPassing clouds.6 mph66%29.74 "HgN/A
4:30 AM46 °FSunny.1 mph71%29.74 "Hg10 mi
4:00 AM45 °FSunny.6 mph71%29.74 "Hg10 mi
3:30 AM43 °FSunny.3 mph76%29.74 "Hg10 mi
3:00 AM43 °FSunny.3 mph76%29.74 "Hg10 mi
2:30 AM45 °FPassing clouds.3 mph76%29.74 "HgN/A
2:00 AM46 °FClear.6 mph71%29.74 "Hg10 mi
1:30 AM46 °FClear.6 mph76%29.74 "Hg10 mi
1:00 AM46 °FClear.6 mph76%29.74 "Hg10 mi
Weather by CustomWeather, © 2015

See weather overviewHow to use our weather pages